EW4487 Le Castellet FR current weather conditions

sailwx.info

Wind from 053 at 0 knots gusting 4

Air temperature 13.9° C
Dewpoint 9.5° C

Last reported at 2020-Jul-05 03:01 UTC.
Time now 2020-Jul-05 04:00 UTC

Location: N 43°13' E 005°47'.
View on Google Maps.

See reports from other nearby stations

  
Tides and Currents Weather Stations Pressure Air Temp Water Temp Dewpoint Dewpoint Depression Visibility Wind Speed Wind Dir Waves Ship Positions
date/time (UTC)wind fromknots sea level pressurealtimeterstation pressurevisibilityair tempwater tempwave heightnotes
2020-Jul-05 03:01 053 0 gusting 4 13.9
2020-Jul-05 02:46 051 1 gusting 4 13.9
2020-Jul-05 02:31 063 2 gusting 6 13.9
2020-Jul-05 02:15 063 13.9
2020-Jul-05 02:00 063 0 gusting 4 14.4
2020-Jul-05 01:47 063 2 gusting 5 14.4
2020-Jul-05 01:32 063 1 gusting 6 14.4
2020-Jul-05 01:01 059 1 gusting 4 14.4
2020-Jul-05 00:45 059 15.0
2020-Jul-05 00:30 059 3 gusting 5 15.0
2020-Jul-05 00:16 059 0 gusting 4 15.0
2020-Jul-05 00:01 059 3 gusting 5 15.6
2020-Jul-04 23:45 059 2 gusting 6 15.6
2020-Jul-04 23:30 059 2 gusting 4 15.6
2020-Jul-04 23:15 059 2 gusting 4 16.1
2020-Jul-04 23:00 059 1 gusting 4 16.7
2020-Jul-04 22:45 059 2 gusting 6 16.1
2020-Jul-04 22:31 059 1 gusting 5 16.7
2020-Jul-04 22:16 059 2 gusting 5 17.2
2020-Jul-04 22:02 059 3 gusting 4 17.8
2020-Jul-04 21:46 059 2 gusting 4 17.8
2020-Jul-04 21:31 059 18.3
2020-Jul-04 21:16 059 3 gusting 6 18.9
2020-Jul-04 21:01 277 1 gusting 4 19.4
2020-Jul-04 20:46 276 20.0
2020-Jul-04 20:31 276 0 gusting 5 20.6
2020-Jul-04 20:16 273 2 gusting 4 21.1
2020-Jul-04 20:00 272 21.7
2020-Jul-04 19:45 272 22.8
2020-Jul-04 19:31 269 23.9
2020-Jul-04 19:17 269 25.0
2020-Jul-04 19:01 269 0 gusting 5 26.1
2020-Jul-04 18:45 269 1 gusting 6 27.8
2020-Jul-04 18:31 269 0 gusting 5 28.3
2020-Jul-04 18:15 270 2 gusting 6 28.9
2020-Jul-04 18:01 264 2 gusting 8 29.4
2020-Jul-04 17:47 267 2 gusting 8 29.4
2020-Jul-04 17:30 271 1 gusting 6 30.0
2020-Jul-04 17:16 237 2 gusting 7 30.0
2020-Jul-04 17:00 278 4 gusting 10 30.6
2020-Jul-04 16:45 309 6 gusting 11 30.6
2020-Jul-04 16:31 287 4 gusting 12 30.6
2020-Jul-04 16:18 205 1 gusting 9 30.6
2020-Jul-04 16:01 250 3 gusting 10 31.1
2020-Jul-04 15:46 221 5 gusting 10 31.1
2020-Jul-04 15:30 202 6 gusting 10 31.1
2020-Jul-04 15:15 247 5 gusting 10 30.6
2020-Jul-04 15:00 248 5 gusting 11 31.1
2020-Jul-04 14:47 246 4 gusting 11 31.1
2020-Jul-04 14:31 218 5 gusting 15 30.6
2020-Jul-04 14:17 208 5 gusting 11 30.0
2020-Jul-04 14:01 250 6 gusting 11 31.1
2020-Jul-04 13:46 245 2 gusting 13 30.6
2020-Jul-04 13:30 234 6 gusting 12 30.0
2020-Jul-04 13:16 250 5 gusting 10 30.6
2020-Jul-04 13:01 244 4 gusting 12 30.6
2020-Jul-04 12:46 232 3 gusting 8 30.6
2020-Jul-04 12:30 254 2 gusting 9 30.0
2020-Jul-04 12:15 180 5 gusting 10 30.6
2020-Jul-04 11:46 257 3 gusting 7 29.4
2020-Jul-04 11:31 263 4 gusting 8 28.9
2020-Jul-04 11:15 232 4 gusting 9 29.4
2020-Jul-04 11:02 253 2 gusting 7 28.9
2020-Jul-04 10:45 227 1 gusting 9 29.4
2020-Jul-04 10:31 258 2 gusting 8 28.9
2020-Jul-04 10:17 277 6 gusting 11 28.3
2020-Jul-04 10:01 257 3 gusting 6 28.9
2020-Jul-04 09:46 284 4 gusting 7 28.3
2020-Jul-04 09:30 295 4 gusting 7 28.9
2020-Jul-04 09:15 307 2 gusting 6 28.3
2020-Jul-04 09:00 312 1 gusting 5 28.3
2020-Jul-04 08:45 321 28.3
2020-Jul-04 08:31 327 2 gusting 5 28.3
2020-Jul-04 08:16 327 1 gusting 4 28.3
2020-Jul-04 08:00 327 0 gusting 3 27.8
2020-Jul-04 07:45 327 0 gusting 4 26.7
2020-Jul-04 07:31 327 0 gusting 3 26.7
2020-Jul-04 07:16 327 0 gusting 3 26.1
2020-Jul-04 07:00 327 25.0
2020-Jul-04 06:45 327 23.3
2020-Jul-04 06:30 327 21.7
2020-Jul-04 06:15 327 19.4
2020-Jul-04 06:01 327 17.2
2020-Jul-04 05:46 327 16.1
2020-Jul-04 05:30 327 15.6
2020-Jul-04 05:15 327 15.0
2020-Jul-04 05:00 327 14.4
2020-Jul-04 04:45 327 0 gusting 4 13.9
2020-Jul-04 04:32 327 2 gusting 5 13.9
2020-Jul-04 04:16 319 2 gusting 4 13.9
2020-Jul-04 04:00 317 0 gusting 2 13.9
2020-Jul-04 03:45 317 13.9
2020-Jul-04 03:17 317 14.4
2020-Jul-04 03:01 317 3 gusting 5 14.4
2020-Jul-04 02:46 313 0 gusting 5 14.4
2020-Jul-04 02:30 311 14.4
2020-Jul-04 02:16 311 15.0
2020-Jul-04 02:01 311 15.0
2020-Jul-04 01:46 311 15.0
2020-Jul-04 01:30 311 15.6
2020-Jul-04 01:16 311 15.6
2020-Jul-04 01:00 311 16.1
2020-Jul-04 00:45 311 16.7
2020-Jul-04 00:31 311 16.7
2020-Jul-04 00:16 311 17.2
2020-Jul-04 00:00 311 17.8
2020-Jul-03 23:46 309 18.9
2020-Jul-03 23:30 309 19.4
2020-Jul-03 23:15 309 20.0
2020-Jul-03 22:46 309 19.4
2020-Jul-03 22:31 309 20.0
2020-Jul-03 22:15 309 20.6
2020-Jul-03 22:00 309 21.1
2020-Jul-03 21:46 309 21.7
2020-Jul-03 21:32 309 21.7
2020-Jul-03 21:17 309 22.2
2020-Jul-03 21:01 325 22.2
2020-Jul-03 20:46 316 22.8
2020-Jul-03 20:30 025 22.8
2020-Jul-03 20:15 320 22.8
2020-Jul-03 20:00 312 23.3
2020-Jul-03 19:46 311 23.3
2020-Jul-03 19:31 309 23.9
2020-Jul-03 19:15 286 23.9
2020-Jul-03 19:01 296 24.4
2020-Jul-03 18:46 321 25.0
2020-Jul-03 18:31 300 25.0
2020-Jul-03 18:15 309 25.0
2020-Jul-03 18:01 317 25.0
2020-Jul-03 17:45 297 25.6
2020-Jul-03 17:31 309 26.7
2020-Jul-03 17:15 304 26.7
2020-Jul-03 17:00 329 27.2
2020-Jul-03 16:46 313 27.2
2020-Jul-03 16:31 309 27.2
2020-Jul-03 16:16 331 7 gusting 16 27.2
2020-Jul-03 16:00 298 7 gusting 16 27.2
2020-Jul-03 15:45 319 6 gusting 15 27.8
2020-Jul-03 15:30 289 7 gusting 17 27.8
2020-Jul-03 15:17 289 9 gusting 19 27.8
2020-Jul-03 15:01 279 9 gusting 17 27.8
2020-Jul-03 14:45 302 6 gusting 18 27.8
2020-Jul-03 14:30 313 7 gusting 13 27.8
2020-Jul-03 14:15 310 6 gusting 16 27.8
2020-Jul-03 14:00 273 8 gusting 17 27.2
2020-Jul-03 13:46 283 8 gusting 17 27.2
2020-Jul-03 13:31 281 6 gusting 16 27.2
2020-Jul-03 13:16 277 7 gusting 20 26.7
2020-Jul-03 13:00 340 7 gusting 15 27.2
2020-Jul-03 12:45 311 7 gusting 22 26.7
2020-Jul-03 12:30 280 9 gusting 16 26.7
2020-Jul-03 12:17 300 5 gusting 17 26.7
2020-Jul-03 12:01 306 10 gusting 20 26.7
2020-Jul-03 11:48 313 9 gusting 19 25.6
2020-Jul-03 11:31 308 8 gusting 23 25.6
2020-Jul-03 11:16 294 9 gusting 19 25.6
2020-Jul-03 11:01 291 9 gusting 17 25.6
2020-Jul-03 10:46 325 7 gusting 16 26.1
2020-Jul-03 10:31 325 9 gusting 15 26.1
2020-Jul-03 10:16 296 6 gusting 18 25.6
2020-Jul-03 10:00 306 8 gusting 15 25.6
2020-Jul-03 09:45 294 9 gusting 16 25.0
2020-Jul-03 09:30 350 7 gusting 18 25.0
2020-Jul-03 09:16 316 6 gusting 18 24.4
2020-Jul-03 09:02 298 6 gusting 13 24.4
2020-Jul-03 08:47 261 8 gusting 19 23.9
2020-Jul-03 08:31 275 6 gusting 17 23.3
2020-Jul-03 08:16 234 8 gusting 18 23.3
2020-Jul-03 08:01 234 2 gusting 10 22.2
2020-Jul-03 07:45 263 3 gusting 9 22.2
2020-Jul-03 07:31 213 22.8
2020-Jul-03 07:15 196 3 gusting 6 22.8
2020-Jul-03 07:00 194 1 gusting 11 21.1
2020-Jul-03 06:46 267 20.6
2020-Jul-03 06:32 218 0 gusting 6 20.6
2020-Jul-03 06:16 215 20.6
2020-Jul-03 06:01 215 20.6
2020-Jul-03 05:45 215 0 gusting 4 20.6
2020-Jul-03 05:31 215 3 gusting 7 20.0
2020-Jul-03 05:16 211 1 gusting 6 20.0
2020-Jul-03 05:01 209 2 gusting 8 20.0
2020-Jul-03 04:45 213 18.9
2020-Jul-03 04:31 194 3 gusting 9 18.9
2020-Jul-03 04:16 213 18.9
2020-Jul-03 04:00 212 18.9